Home   Weather   Dessau-Rosslau   Past weeks

Flag for Germany Past Weather in Dessau-Rosslau, Saxony-Anhalt, Germany — Yesterday and Last 2 Weeks

Now
21 °F

Partly sunny.


Feels Like: 21 °F
Forecast: 12 / 32 °F
Wind: 1 mph from North

Location: Leipzig-Schkeuditz

Current Time: Jan 19, 2017 at 2:08:18 pm

Latest Report: Jan 19, 2017 at 1:50 pm


Visibility: 4 mi

Pressure: 30.66 "Hg

Humidity: 86%

Dew Point: 18 °F

Location of Dessau-RosslauLocation

Past Weather in Dessau-Rosslau — Graph

°F

Dessau-Rosslau Temperature Yesterday

Maximum temperature yesterday: 25 °F (at 9:20 am)
Minimum temperature yesterday: 23 °F (at 12:20 am)
Average temperature yesterday: 24 °F

High & Low Weather Summary for the Past Weeks

 TemperatureHumidityPressure
High39 °F (Jan 4, 12:50 pm)100% (Jan 4, 5:50 pm)30.74 "Hg (Jan 4, 5:50 pm)
Low12 °F (Jan 7, 12:20 am)59% (Jan 7, 2:50 pm)29.00 "Hg (Jan 13, 6:20 am)
Average29 °F87%30.13 "Hg
* Reported Jan 4 12:20 pm — Jan 19 12:50 pm, Dessau-Rosslau, Weather by CustomWeather, © 2017

Note: Actual official high and low records may vary slightly from our data, if they occured in-between our weather recording intervals... More about our weather records

Advertising

Dessau-Rosslau Weather History for the Previous 24 Hours

Scroll right to see more
 ConditionsComfort  
Time TempWeatherWind HumidityBarometerVisibility
12:50 pm
Thu, Jan 19
21 °FPartly sunny.6 mph86%30.66 "Hg4 mi
12:20 pm19 °FPartly sunny.5 mph93%30.69 "Hg3 mi
11:50 am19 °FIce fog.6 mph93%30.69 "Hg3 mi
11:20 am19 °FIce fog.7 mph93%30.69 "Hg3 mi
10:50 am19 °FIce fog.6 mph93%30.69 "Hg3 mi
10:20 am19 °FIce fog.3 mph93%30.69 "Hg3 mi
9:50 am19 °FSnow flurries. Ice fog.6 mph93%30.69 "Hg3 mi
9:20 am19 °FIce fog.6 mph93%30.69 "Hg3 mi
8:50 am19 °FIce fog.6 mph93%30.69 "Hg2 mi
8:20 am19 °FIce fog.6 mph93%30.69 "Hg2 mi
7:50 am19 °FIce fog.5 mph93%30.66 "Hg2 mi
7:20 am19 °FLow clouds.5 mph93%30.66 "Hg3 mi
6:50 am19 °FIce fog.2 mph93%30.66 "Hg3 mi
6:20 am19 °FIce fog.5 mph93%30.66 "Hg3 mi
5:50 am19 °FIce fog.3 mph93%30.66 "Hg3 mi
5:20 am19 °FLight snow. Ice fog.2 mph93%30.69 "Hg3 mi
4:50 am19 °FIce fog.3 mph100%30.69 "Hg3 mi
4:20 am19 °FLight snow. Ice fog.6 mph93%30.69 "Hg3 mi
3:50 am19 °FLow clouds.5 mph100%30.69 "Hg4 mi
3:20 am19 °FLow clouds.3 mph100%30.69 "Hg4 mi
2:50 am19 °FLow clouds.3 mph100%30.69 "Hg4 mi
2:20 am21 °FLow clouds.8 mph93%30.69 "Hg4 mi
1:50 am21 °FLow clouds.6 mph93%30.69 "Hg5 mi
1:20 am21 °FPassing clouds.5 mph93%30.69 "Hg5 mi
12:50 am21 °FPassing clouds.3 mph93%30.69 "Hg5 mi
12:20 am23 °FPassing clouds.5 mph86%30.69 "HgN/A
11:50 pm
Wed, Jan 18
23 °FPassing clouds.5 mph86%30.69 "HgN/A
11:20 pm23 °FPassing clouds.3 mph86%30.69 "HgN/A
10:50 pm23 °FPassing clouds.6 mph86%30.69 "HgN/A
10:20 pm23 °FPassing clouds.5 mph86%30.72 "HgN/A
9:50 pm23 °FPassing clouds.3 mph93%30.72 "HgN/A
9:20 pm23 °FPassing clouds.7 mph86%30.72 "HgN/A
8:50 pm23 °FPassing clouds.6 mph93%30.72 "HgN/A
8:20 pm23 °FLight snow. Passing clouds.8 mph86%30.72 "HgN/A
7:50 pm23 °FPassing clouds.8 mph93%30.69 "HgN/A
7:20 pm23 °FPassing clouds.8 mph93%30.72 "HgN/A
6:50 pm23 °FPassing clouds.5 mph93%30.72 "HgN/A
6:20 pm23 °FPassing clouds.7 mph93%30.72 "HgN/A
5:50 pm23 °FPassing clouds.7 mph86%30.72 "HgN/A
5:20 pm25 °FPassing clouds.6 mph86%30.72 "HgN/A
4:50 pm25 °FPassing clouds.6 mph86%30.72 "HgN/A
4:20 pm25 °FPartly sunny.5 mph86%30.72 "HgN/A
3:50 pm25 °FPartly sunny.7 mph86%30.72 "HgN/A
3:20 pm25 °FPartly sunny.8 mph86%30.72 "HgN/A
2:50 pm25 °FPartly sunny.7 mph86%30.72 "HgN/A
2:20 pm25 °FPartly sunny.8 mph86%30.72 "HgN/A
Weather by CustomWeather, © 2017

See weather overviewHow to use our weather pages